When you browse on this site, cookies collect data to enhance your experience and personalize the content and advertising you see.
Visit our Privacy Policy to learn more. By continuing to use the site, you agree to this use of cookies and data.
  • In Schweiz
  • Länderverzeichnis
  • Für 7 Tage
  • Wassertemperatur
  • Wetterkarte
  • Widgets
  • user-avatar
    Anmelden

    Stündliche Wetter Löhne

    Heute, 5 Juni, Freitag

    Zeit Temperatur Niederschläge Wind Luftdruck Luftfeuchtigkeit
    00:00 +10°C° 0.4 mm 4 m/S 739 mmHg 95%
    01:00 +8°C° 0 mm 4 m/S 740 mmHg 96%
    02:00 +8°C° 0.2 mm 4 m/S 740 mmHg 96%
    03:00 +7°C° 0.2 mm 4 m/S 739 mmHg 96%
    04:00 +7°C° 0.2 mm 3 m/S 739 mmHg 95%
    05:00 +7°C° 0 mm 4 m/S 739 mmHg 92%
    06:00 +7°C° 0 mm 4 m/S 739 mmHg 90%
    07:00 +8°C° 0 mm 5 m/S 740 mmHg 87%
    08:00 +9°C° 0 mm 5 m/S 739 mmHg 79%
    09:00 +12°C° 0 mm 5 m/S 739 mmHg 71%
    10:00 +13°C° 0 mm 5 m/S 738 mmHg 63%
    11:00 +14°C° 0.2 mm 6 m/S 738 mmHg 63%
    12:00 +15°C° 0.2 mm 7 m/S 737 mmHg 63%
    13:00 +15°C° 0.2 mm 7 m/S 737 mmHg 64%
    14:00 +14°C° 0.8 mm 7 m/S 736 mmHg 72%
    15:00 +11°C° 0.8 mm 7 m/S 736 mmHg 81%
    16:00 +10°C° 0.8 mm 6 m/S 735 mmHg 90%
    17:00 +9°C° 0.5 mm 6 m/S 736 mmHg 89%
    18:00 +9°C° 0.5 mm 6 m/S 736 mmHg 89%
    19:00 +9°C° 0.5 mm 6 m/S 736 mmHg 88%
    20:00 +8°C° 0.1 mm 6 m/S 737 mmHg 89%
    21:00 +8°C° 0.1 mm 6 m/S 737 mmHg 90%
    22:00 +7°C° 0.1 mm 6 m/S 738 mmHg 91%
    23:00 +7°C° 0.1 mm 6 m/S 739 mmHg 90%

    Morgen, 6 Juni, Samstag

    Zeit Temperatur Niederschläge Wind Luftdruck Luftfeuchtigkeit
    00:00 +5°C° 0.1 mm 6 m/S 739 mmHg 90%
    01:00 +6°C° 0.1 mm 5 m/S 740 mmHg 90%
    02:00 +6°C° 0 mm 5 m/S 740 mmHg 91%
    03:00 +5°C° 0 mm 5 m/S 741 mmHg 92%
    04:00 +5°C° 0 mm 5 m/S 741 mmHg 92%
    05:00 +5°C° 0 mm 6 m/S 741 mmHg 89%
    06:00 +7°C° 0 mm 6 m/S 741 mmHg 86%
    07:00 +9°C° 0 mm 7 m/S 741 mmHg 83%
    08:00 +9°C° 0.4 mm 7 m/S 741 mmHg 81%
    09:00 +10°C° 0.4 mm 7 m/S 742 mmHg 80%
    10:00 +10°C° 0.4 mm 7 m/S 742 mmHg 79%
    11:00 +11°C° 0.5 mm 7 m/S 742 mmHg 74%
    12:00 +12°C° 0.5 mm 7 m/S 742 mmHg 69%
    13:00 +14°C° 0.5 mm 7 m/S 742 mmHg 63%
    14:00 +15°C° 0.1 mm 7 m/S 742 mmHg 59%
    15:00 +16°C° 0.1 mm 7 m/S 742 mmHg 54%
    16:00 +16°C° 0.1 mm 7 m/S 743 mmHg 49%
    17:00 +15°C° 0 mm 6 m/S 743 mmHg 55%
    18:00 +14°C° 0 mm 5 m/S 743 mmHg 60%
    19:00 +14°C° 0 mm 4 m/S 743 mmHg 66%
    20:00 +12°C° 0 mm 4 m/S 743 mmHg 67%
    21:00 +11°C° 0 mm 3 m/S 744 mmHg 69%
    22:00 +9°C° 0 mm 3 m/S 744 mmHg 70%
    23:00 +8°C° 0 mm 4 m/S 744 mmHg 70%

    übermorgen, 7 Juni, Sonntag

    Zeit Temperatur Niederschläge Wind Luftdruck Luftfeuchtigkeit
    00:00 +8°C° 0 mm 4 m/S 744 mmHg 69%
    01:00 +8°C° 0 mm 4 m/S 744 mmHg 69%
    02:00 +8°C° 0 mm 5 m/S 744 mmHg 68%
    03:00 +8°C° 0 mm 5 m/S 744 mmHg 67%
    04:00 +8°C° 0 mm 5 m/S 745 mmHg 66%
    05:00 +9°C° 0 mm 6 m/S 745 mmHg 68%
    06:00 +9°C° 0 mm 7 m/S 745 mmHg 70%
    07:00 +10°C° 0 mm 7 m/S 745 mmHg 72%
    08:00 +10°C° 0.1 mm 7 m/S 745 mmHg 72%
    09:00 +11°C° 0.1 mm 7 m/S 746 mmHg 71%
    10:00 +12°C° 0.1 mm 7 m/S 746 mmHg 71%
    11:00 +14°C° 0.3 mm 7 m/S 747 mmHg 67%
    12:00 +16°C° 0.3 mm 7 m/S 747 mmHg 63%
    13:00 +17°C° 0.3 mm 7 m/S 747 mmHg 59%
    14:00 +17°C° 0.2 mm 6 m/S 748 mmHg 59%
    15:00 +17°C° 0.2 mm 6 m/S 748 mmHg 59%
    16:00 +17°C° 0.2 mm 5 m/S 748 mmHg 59%
    17:00 +18°C° 0.2 mm 4 m/S 749 mmHg 64%
    18:00 +17°C° 0.2 mm 3 m/S 749 mmHg 69%
    19:00 +16°C° 0.2 mm 2 m/S 749 mmHg 74%
    20:00 +14°C° 0 mm 2 m/S 750 mmHg 78%
    21:00 +13°C° 0 mm 1 m/S 751 mmHg 82%
    22:00 +11°C° 0 mm 1 m/S 751 mmHg 86%
    23:00 +9°C° 0 mm 0 m/S 751 mmHg 87%

    8 Juni, Montag

    Zeit Temperatur Niederschläge Wind Luftdruck Luftfeuchtigkeit
    00:00 +9°C° 0 mm 0 m/S 751 mmHg 87%
    01:00 +8°C° 0 mm 0 m/S 752 mmHg 88%
    02:00 +8°C° 0 mm 0 m/S 752 mmHg 88%
    03:00 +8°C° 0 mm 0 m/S 752 mmHg 89%
    04:00 +9°C° 0 mm 1 m/S 752 mmHg 89%
    05:00 +10°C° 0 mm 1 m/S 752 mmHg 85%
    06:00 +12°C° 0 mm 1 m/S 752 mmHg 81%
    07:00 +14°C° 0 mm 1 m/S 752 mmHg 78%
    08:00 +15°C° 0 mm 1 m/S 753 mmHg 71%
    09:00 +17°C° 0 mm 2 m/S 753 mmHg 65%
    10:00 +18°C° 0 mm 2 m/S 753 mmHg 59%
    11:00 +19°C° 0 mm 2 m/S 753 mmHg 56%
    12:00 +20°C° 0 mm 3 m/S 753 mmHg 54%
    13:00 +21°C° 0 mm 3 m/S 753 mmHg 52%
    14:00 +21°C° 0.1 mm 3 m/S 753 mmHg 53%
    15:00 +21°C° 0.1 mm 3 m/S 753 mmHg 54%
    16:00 +21°C° 0.1 mm 3 m/S 753 mmHg 56%
    17:00 +20°C° 0 mm 3 m/S 753 mmHg 62%
    18:00 +19°C° 0 mm 3 m/S 753 mmHg 69%
    19:00 +18°C° 0 mm 2 m/S 753 mmHg 75%
    20:00 +17°C° 0 mm 2 m/S 754 mmHg 78%
    21:00 +15°C° 0 mm 2 m/S 754 mmHg 80%
    22:00 +14°C° 0 mm 2 m/S 754 mmHg 83%
    23:00 +13°C° 0 mm 2 m/S 755 mmHg 84%

    9 Juni, Dienstag

    Zeit Temperatur Niederschläge Wind Luftdruck Luftfeuchtigkeit
    00:00 +13°C° 0 mm 1 m/S 755 mmHg 85%
    01:00 +13°C° 0 mm 1 m/S 755 mmHg 86%
    02:00 +12°C° 0 mm 1 m/S 755 mmHg 87%
    03:00 +12°C° 0 mm 1 m/S 755 mmHg 89%
    04:00 +11°C° 0 mm 1 m/S 755 mmHg 91%
    05:00 +12°C° 0 mm 2 m/S 755 mmHg 88%
    06:00 +13°C° 0 mm 2 m/S 755 mmHg 86%
    07:00 +15°C° 0 mm 2 m/S 756 mmHg 83%
    08:00 +16°C° 0.2 mm 3 m/S 756 mmHg 80%
    09:00 +17°C° 0.2 mm 3 m/S 756 mmHg 76%
    10:00 +18°C° 0.2 mm 4 m/S 756 mmHg 73%
    11:00 +18°C° 0 mm 4 m/S 756 mmHg 67%
    12:00 +19°C° 0 mm 4 m/S 756 mmHg 62%
    13:00 +20°C° 0 mm 3 m/S 756 mmHg 57%
    14:00 +20°C° 0.2 mm 3 m/S 756 mmHg 61%
    15:00 +19°C° 0.2 mm 3 m/S 756 mmHg 66%
    16:00 +19°C° 0.2 mm 3 m/S 756 mmHg 70%
    17:00 +18°C° 0.2 mm 3 m/S 756 mmHg 75%
    18:00 +17°C° 0.2 mm 3 m/S 756 mmHg 80%
    19:00 +16°C° 0.2 mm 3 m/S 757 mmHg 85%
    20:00 +14°C° 0 mm 3 m/S 757 mmHg 87%
    21:00 +15°C° 0 mm 2 m/S 757 mmHg 90%
    22:00 +14°C° 0 mm 2 m/S 758 mmHg 93%
    23:00 +13°C° 0 mm 2 m/S 758 mmHg 94%

    10 Juni, Mittwoch

    Zeit Temperatur Niederschläge Wind Luftdruck Luftfeuchtigkeit
    00:00 +12°C° 0 mm 2 m/S 758 mmHg 95%
    01:00 +12°C° 0 mm 1 m/S 758 mmHg 95%
    02:00 +11°C° 0 mm 1 m/S 758 mmHg 96%
    03:00 +10°C° 0 mm 2 m/S 758 mmHg 96%
    04:00 +10°C° 0 mm 2 m/S 758 mmHg 97%
    05:00 +12°C° 0 mm 2 m/S 758 mmHg 94%
    06:00 +13°C° 0 mm 2 m/S 758 mmHg 91%
    07:00 +14°C° 0 mm 2 m/S 758 mmHg 88%
    08:00 +16°C° 0 mm 2 m/S 759 mmHg 81%
    09:00 +17°C° 0 mm 3 m/S 759 mmHg 73%
    10:00 +19°C° 0 mm 3 m/S 759 mmHg 66%
    11:00 +19°C° 0.1 mm 3 m/S 759 mmHg 67%
    12:00 +19°C° 0.1 mm 4 m/S 759 mmHg 67%
    13:00 +19°C° 0.1 mm 4 m/S 759 mmHg 67%
    14:00 +19°C° 0.1 mm 4 m/S 759 mmHg 67%
    15:00 +20°C° 0.1 mm 4 m/S 758 mmHg 68%
    16:00 +20°C° 0.1 mm 4 m/S 758 mmHg 68%
    17:00 +19°C° 0.1 mm 4 m/S 758 mmHg 73%
    18:00 +18°C° 0.1 mm 4 m/S 758 mmHg 77%
    19:00 +17°C° 0.1 mm 4 m/S 759 mmHg 81%
    20:00 +15°C° 0 mm 4 m/S 759 mmHg 85%
    21:00 +13°C° 0 mm 4 m/S 759 mmHg 89%
    22:00 +11°C° 0 mm 3 m/S 759 mmHg 93%
    23:00 +11°C° 0 mm 3 m/S 759 mmHg 94%
    Mehr zeigen